Weather History for LTAU - April, 2013

Change the Weather History Date:

Wednesday, April 10, 2013

  Actual Average Record
Temperature  
Mean Temperature 47 °F -  
Max Temperature 55 °F 63 °F 80 °F (1998)
Min Temperature 37 °F 39 °F 15 °F (1997)
Degree Days  
Heating Degree Days 18    
Moisture  
Dew Point 39 °F    
Average Humidity 74    
Maximum Humidity 93    
Minimum Humidity 47    
Precipitation  
Precipitation 0.12 in - - ()
Sea Level Pressure  
Sea Level Pressure 29.92 in    
Wind  
Wind Speed 5 mph ()    
Max Wind Speed 13 mph    
Max Gust Speed -    
Visibility 6.4 miles    
Events Rain    
Averages and records for this station are not official NWS values.
T = Trace of Precipitation, MM = Missing Value Source: Averaged Metar Reports

Daily Weather History Graph

Daily Weather History Graph

Search for Another Location

Airport or City:

Trip Planner

Search our weather history database for the weather conditions in past years. The results will help you decide how hot, cold, wet, or windy it might be!

Date:

Astronomy

Apr. 10, 2013 Rise Set
Actual Time 6:09 AM EEST 7:10 PM EEST
Civil Twilight 5:41 AM EEST 7:37 PM EEST
Nautical Twilight 5:09 AM EEST 8:09 PM EEST
Astronomical Twilight 4:36 AM EEST 8:43 PM EEST
Moon 5:53 AM EEST (4/10) 7:24 PM EEST (4/10)
Length of Visible Light 13h 55m
Length of Day
13h 00m
Waning Crescent, 0% of the Moon is Illuminated
Apr 10
Waning Crescent
Apr 10
New
Apr 18
First Quarter
Apr 25
Full
May 2
Last Quarter

Hourly Weather History & Observations

Time (EEST) Temp. Windchill Dew Point Humidity Pressure Visibility Wind Dir Wind Speed Gust Speed Precip Events Conditions
12:20 AM 44.6 °F 43.1 °F 37.4 °F 76% 29.86 in 6.2 mi NNE 3.5 mph - N/A   Mostly Cloudy
12:50 AM 44.6 °F 42.2 °F 37.4 °F 76% 29.86 in 6.2 mi NE 4.6 mph - N/A   Mostly Cloudy
1:20 AM 46.4 °F 45.2 °F 37.4 °F 71% 29.86 in 6.2 mi North 3.5 mph - N/A   Mostly Cloudy
1:50 AM 46.4 °F - 37.4 °F 71% 29.86 in 6.2 mi NNW 2.3 mph - N/A   Mostly Cloudy
2:20 AM 46.4 °F - 37.4 °F 71% 29.86 in 6.2 mi North 2.3 mph - N/A   Mostly Cloudy
2:50 AM 46.4 °F 44.3 °F 39.2 °F 76% 29.86 in 6.2 mi North 4.6 mph - N/A   Mostly Cloudy
3:00 AM 47 °F - 38 °F 63%  in 12 mi North 4.6 mph - -   Partly Cloudy
3:20 AM 48.2 °F - 39.2 °F 71% 29.86 in 6.2 mi North 4.6 mph - N/A   Mostly Cloudy
3:50 AM 46.4 °F - 39.2 °F 76% 29.86 in 6.2 mi Calm Calm - N/A   Mostly Cloudy
4:20 AM 46.4 °F 44.3 °F 39.2 °F 76% 29.86 in 6.2 mi West 4.6 mph - N/A   Mostly Cloudy
4:50 AM 46.4 °F 41.9 °F 41.0 °F 81% 29.86 in 6.2 mi WSW 9.2 mph - N/A   Mostly Cloudy
5:20 AM 46.4 °F 41.9 °F 41.0 °F 81% 29.86 in 6.2 mi WSW 9.2 mph - N/A   Mostly Cloudy
5:50 AM 46.4 °F 41.5 °F 42.8 °F 87% 29.86 in 6.2 mi WSW 10.4 mph - N/A Rain Light Rain Showers
6:20 AM 44.6 °F 39.2 °F 42.8 °F 93% 29.89 in 6.2 mi WSW 10.4 mph - N/A Rain Light Rain Showers
6:50 AM 44.6 °F 39.7 °F 41.0 °F 87% 29.89 in 6.2 mi WSW 9.2 mph - N/A Rain Light Rain Showers
7:20 AM 44.6 °F 39.2 °F 42.8 °F 93% 29.89 in 6.2 mi WSW 10.4 mph - N/A Rain Light Rain Showers
7:50 AM 44.6 °F 40.7 °F 42.8 °F 93% 29.92 in 6.2 mi WSW 6.9 mph - N/A Rain Light Rain Showers
8:20 AM 44.6 °F 43.1 °F 41.0 °F 87% 29.92 in 6.2 mi SW 3.5 mph - N/A Rain Light Rain Showers
8:50 AM 42.8 °F - 41.0 °F 93% 29.92 in 5.0 mi Calm Calm - N/A Rain Light Rain Showers
9:00 AM 44 °F - 41 °F 87%  in 5 mi Calm Calm - - Rain Light Rain Showers
9:20 AM 44.6 °F 43.1 °F 41.0 °F 87% 29.95 in 5.6 mi South 3.5 mph - N/A Rain Light Rain Showers
9:50 AM 44.6 °F - 41.0 °F 87% 29.95 in 5.6 mi Variable 2.3 mph - N/A Rain Light Rain Showers
10:20 AM 44.6 °F - 41.0 °F 87% 29.95 in 5.6 mi Variable 1.2 mph - N/A Rain Light Rain Showers
10:50 AM 44.6 °F 43.1 °F 41.0 °F 87% 29.95 in 5.6 mi West 3.5 mph - N/A Rain Light Rain Showers
11:20 AM 44.6 °F - 41.0 °F 87% 29.95 in 6.2 mi Variable 2.3 mph - N/A Rain Light Rain Showers
11:28 AM 46.4 °F 42.9 °F 41.0 °F 81% 29.95 in 6.2 mi WSW 6.9 mph - N/A   Mostly Cloudy
11:50 AM 48.2 °F - 42.8 °F 82% 29.95 in 6.2 mi WSW 9.2 mph - N/A   Mostly Cloudy
12:20 PM 50.0 °F - 42.8 °F 76% 29.95 in 6.2 mi WSW 12.7 mph - N/A   Mostly Cloudy
12:50 PM 50.0 °F - 41.0 °F 71% 29.92 in 6.2 mi WSW 12.7 mph - N/A   Mostly Cloudy
1:20 PM 51.8 °F - 41.0 °F 67% 29.92 in 6.2 mi WSW 10.4 mph - N/A   Mostly Cloudy
1:50 PM 53.6 °F - 41.0 °F 62% 29.92 in 6.2 mi WSW 12.7 mph - N/A   Mostly Cloudy
2:20 PM 53.6 °F - 41.0 °F 62% 29.92 in 6.2 mi WSW 12.7 mph - N/A   Mostly Cloudy
2:50 PM 53.6 °F - 39.2 °F 58% 29.92 in 6.2 mi West 10.4 mph - N/A   Mostly Cloudy
3:00 PM 54 °F - 39 °F 47%  in 12 mi West 10.4 mph - -   Partly Cloudy
3:20 PM 55.4 °F - 39.2 °F 54% 29.89 in 6.2 mi West 12.7 mph - N/A   Mostly Cloudy
3:50 PM 53.6 °F - 37.4 °F 54% 29.89 in 6.2 mi WSW 10.4 mph - N/A   Mostly Cloudy
4:20 PM 53.6 °F - 39.2 °F 58% 29.89 in 6.2 mi West 12.7 mph - N/A   Mostly Cloudy
4:50 PM 53.6 °F - 35.6 °F 51% 29.89 in 6.2 mi West 11.5 mph - N/A   Mostly Cloudy
5:20 PM 53.6 °F - 35.6 °F 51% 29.89 in 6.2 mi West 12.7 mph - N/A   Mostly Cloudy
5:50 PM 53.6 °F - 37.4 °F 54% 29.92 in 6.2 mi West 12.7 mph - N/A   Mostly Cloudy
6:20 PM 51.8 °F - 35.6 °F 54% 29.92 in 6.2 mi West 12.7 mph - N/A   Mostly Cloudy
6:50 PM 51.8 °F - 35.6 °F 54% 29.95 in 6.2 mi West 12.7 mph - N/A   Mostly Cloudy
7:20 PM 48.2 °F - 35.6 °F 62% 29.95 in 6.2 mi WSW 8.1 mph - N/A   Mostly Cloudy
7:50 PM 48.2 °F - 35.6 °F 62% 29.95 in 6.2 mi WSW 8.1 mph - N/A   Scattered Clouds
8:20 PM 44.6 °F 41.4 °F 35.6 °F 71% 29.98 in 6.2 mi WSW 5.8 mph - N/A   Scattered Clouds
8:50 PM 42.8 °F - 35.6 °F 76% 29.98 in 6.2 mi SW 1.2 mph - N/A   Scattered Clouds
9:00 PM 42 °F - 35 °F 69%  in 12 mi SW 1.2 mph - -   Partly Cloudy
9:20 PM 41.0 °F - 35.6 °F 81% 29.98 in 6.2 mi WNW 1.2 mph - N/A   Partly Cloudy
9:50 PM 42.8 °F 40.1 °F 35.6 °F 76% 29.98 in 6.2 mi West 4.6 mph - N/A   Partly Cloudy
10:20 PM 41.0 °F - 35.6 °F 81% 29.98 in 6.2 mi ENE 1.2 mph - N/A   Partly Cloudy
10:50 PM 39.2 °F - 35.6 °F 87% 30.01 in 6.2 mi Calm Calm - N/A   Partly Cloudy
11:20 PM 39.2 °F - 33.8 °F 81% 30.01 in 6.2 mi Calm Calm - N/A   Partly Cloudy
11:50 PM 37.4 °F - 35.6 °F 93% 30.01 in 6.2 mi ENE 1.2 mph - N/A   Partly Cloudy